[[{"header":{"parameterUnit":"m.s-1","parameterCategory":1,"la1":30.2991,"la2":30.254,"lo1":-89.0895,"lo2":-89.0444,"dy":0.0017,"dx":0.0017,"nx":28,"ny":28,"refTime":"2023-08-29T09:00:00:Z","depth":0,"parameterNumber":2,"parameterNumberName":"U-component_of_WINDS"},"data":[0,0,0,0,0,0,0,0,0,0,0,0,0,0,0,0,0,0,0,0,0,0,0,0,0,0,0,0,0,0,0,0,0,0,0,0,0,0,0,0,0,0,0,0,0,0,0,0,0,0,0,0,0,0,0,0,0,0,-2.2715,-2.2715,0,-2.2646,-2.2645,-2.2644,-2.253,-2.2528,-2.2526,-2.2524,-2.2454,-2.2455,-2.2455,0,0,0,0,0,0,0,0,0,0,0,0,0,-2.2751,-2.2751,-2.2715,-2.2715,-2.2714,-2.2646,-2.2645,-2.2644,-2.253,-2.2528,-2.2525,-2.2523,-2.2454,-2.2455,-2.2455,0,0,0,0,0,0,0,0,0,0,0,0,0,-2.2714,-2.2751,-2.2716,-2.2649,-2.2642,-2.2646,-2.2645,-2.2644,-2.2531,-2.2528,-2.2525,-2.2522,-2.2454,-2.2455,-2.2455,-2.2519,0,0,-2.2455,-2.2455,0,0,0,0,0,0,0,0,-2.2716,-2.2713,-2.2659,-2.2653,-2.2646,-2.2593,-2.2632,-2.2602,-2.2532,-2.2573,-2.2524,-2.252,-2.2503,-2.2499,-2.2493,-2.2516,-2.2513,-2.2455,-2.2455,-2.2455,-2.2456,0,0,0,0,0,0,0,-2.2719,-2.2715,-2.2688,-2.2659,-2.2651,-2.2623,-2.2614,-2.2626,-2.2557,-2.2569,-2.2561,-2.2554,-2.2499,-2.2493,-2.2491,-2.2512,-2.2455,-2.2455,-2.2456,-2.2456,-2.2581,-2.2584,0,0,0,0,0,0,-2.2731,-2.2718,-2.269,-2.2686,-2.2674,-2.2625,-2.2615,-2.2613,-2.2556,-2.2545,-2.2557,-2.2549,-2.2495,-2.2491,-2.2488,-2.2557,-2.2455,-2.2456,-2.2456,-2.2578,-2.2582,-2.2585,0,0,0,0,0,0,-2.2732,-2.273,-2.2693,-2.27,-2.2693,-2.2627,-2.2627,-2.2614,-2.2608,-2.2547,-2.2534,-2.2564,-2.2492,-2.2488,-2.2511,-2.2554,-2.2456,-2.2456,-2.2574,-2.2579,-2.2584,-2.2699,0,0,0,0,0,0,-2.2734,-2.2731,-2.2754,-2.2701,-2.2693,-2.2718,-2.2629,-2.2615,-2.2608,-2.2597,-2.255,-2.2539,-2.2489,-2.2512,-2.2512,-2.2552,-2.2456,-2.257,-2.2576,-2.2582,-2.2691,-2.2707,-2.2721,0,0,0,0,0,-2.2736,-2.2791,-2.2756,-2.2754,-2.2721,-2.272,-2.2716,-2.2657,-2.2612,-2.2635,-2.2596,-2.254,-2.2549,-2.2515,-2.2514,-2.2555,-2.2567,-2.2575,-2.2582,-2.2684,-2.2704,-2.272,0,0,0,0,0,0,-2.2852,-2.2782,-2.2744,-2.2783,-2.2758,-2.2701,-2.2728,-2.268,-2.2668,-2.2658,-2.2586,-2.2576,-2.2609,-2.2585,-2.2548,-2.2613,-2.255,-2.2557,-2.2628,-2.2646,-2.2661,-2.2665,-2.2456,0,0,0,0,0,-2.2882,-2.2887,-2.2826,-2.2866,-2.2856,-2.2795,-2.2792,-2.2749,-2.2721,-2.271,-2.2672,-2.2648,-2.2644,-2.2644,-2.2638,-2.2687,-2.2674,-2.2715,-2.273,-2.2742,-2.2749,-2.2771,-2.2788,-2.2609,-2.2609,-2.2609,0,0,-2.2944,-2.2907,-2.2914,-2.2889,-2.2864,-2.2871,-2.2787,-2.2798,-2.2802,-2.2712,-2.2731,-2.2703,-2.2671,-2.2707,-2.2721,-2.2688,-2.2796,-2.2752,-2.2762,-2.2762,-2.2781,-2.2798,-2.2813,-2.2614,-2.2613,-2.2613,0,0,-2.306,-2.3033,-2.3063,-2.304,-2.3004,-2.2963,-2.297,-2.292,-2.2898,-2.2916,-2.2848,-2.2852,-2.2849,-2.2828,-2.2817,-2.2925,-2.2873,-2.2925,-2.3003,-2.3025,-2.3039,-2.3051,-2.3088,-2.3102,-2.2933,-2.2933,-2.2933,0,-2.3142,-2.3149,-2.3085,-2.3099,-2.309,-2.3008,-2.3037,-2.3018,-2.2983,-2.2978,-2.2941,-2.2934,-2.2907,-2.2936,-2.2962,-2.2956,-2.2962,-2.293,-2.3042,-2.3054,-2.3064,-2.3098,-2.3113,-2.2939,-2.2939,-2.2938,-2.2937,0,-2.3251,-2.3257,-2.3285,-2.3252,-2.3245,-2.3268,-2.3207,-2.3208,-2.3165,-2.3128,-2.3147,-2.3111,-2.3095,-2.31,-2.3059,-2.3123,-2.3103,-2.3056,-2.299,-2.3089,-2.3119,-2.3132,-2.2949,-2.2946,-2.2944,-2.2943,0,0,-2.3438,-2.3368,-2.3379,-2.3362,-2.3316,-2.332,-2.3338,-2.3322,-2.3324,-2.3303,-2.3315,-2.3314,-2.3269,-2.3257,-2.3213,-2.3233,-2.3318,-2.3182,-2.318,-2.3207,-2.3385,-2.342,-2.3436,-2.3284,-2.3286,-2.3288,-2.3387,0,-2.3543,-2.357,-2.3512,-2.3553,-2.3557,-2.3479,-2.3494,-2.3468,-2.3434,-2.3432,-2.3394,-2.3394,-2.3336,-2.3327,-2.3344,-2.3304,-2.3353,-2.3297,-2.3294,-2.3295,-2.3303,-2.3452,-2.3489,-2.3584,-2.3399,-2.3401,-2.3402,0,-2.367,-2.3654,-2.3695,-2.3645,-2.3644,-2.366,-2.3639,-2.3639,-2.3608,-2.3581,-2.3567,-2.3515,-2.3529,-2.3467,-2.3484,-2.3447,-2.3443,-2.3424,-2.3426,-2.3422,-2.3354,-2.3451,-2.3613,-2.3627,-2.3421,-2.3419,-2.3418,0,-2.38,-2.3789,-2.3811,-2.3799,-2.3743,-2.3755,-2.3732,-2.3697,-2.3691,-2.3673,-2.3668,-2.3653,-2.3645,-2.3635,-2.3579,-2.3539,-2.3603,-2.3537,-2.358,-2.3582,-2.3596,-2.3596,-2.3759,-2.3597,-2.3597,-2.3597,-2.3596,0,-2.3923,-2.3951,-2.3868,-2.3882,-2.391,-2.3844,-2.3874,-2.3843,-2.3813,-2.3819,-2.3751,-2.3759,-2.3686,-2.3685,-2.3642,-2.3662,-2.366,-2.3638,-2.3626,-2.3643,-2.3646,-2.3638,-2.3629,-2.36,-2.3599,-2.3599,-2.3598,0,-2.4073,-2.4019,-2.4038,-2.3982,-2.3969,-2.3992,-2.3945,-2.3955,-2.3916,-2.3925,-2.3923,-2.3862,-2.3857,-2.3801,-2.3785,-2.3756,-2.3792,-2.3769,-2.3803,-2.3794,-2.3841,-2.3837,-2.4003,-2.4021,-2.385,-2.3852,-2.3853,0,-2.4154,-2.4173,-2.412,-2.4119,-2.4099,-2.4098,-2.4091,-2.4026,-2.4022,-2.3986,-2.4001,-2.399,-2.3978,-2.3974,-2.3929,-2.3915,-2.3889,-2.3949,-2.3887,-2.3903,-2.3888,-2.3887,-2.3888,-2.3962,-2.3964,-2.3966,-2.3967,0,-2.4304,-2.4276,-2.4268,-2.425,-2.4243,-2.4227,-2.4206,-2.4209,-2.4138,-2.4136,-2.4129,-2.412,-2.4103,-2.4093,-2.4071,-2.4047,-2.3995,-2.3987,-2.3996,-2.4013,-2.4031,-2.402,-2.3837,-2.3983,-2.3982,-2.398,-2.3979,-2.3979,-2.442,-2.4433,-2.4397,-2.439,-2.4367,-2.4349,-2.4355,-2.4317,-2.431,-2.429,-2.4253,-2.4252,-2.4219,-2.4184,-2.4164,-2.4162,-2.4132,-2.4145,-2.4148,-2.4152,-2.4161,-2.4033,-2.4159,-2.4158,-2.4157,-2.4157,-2.4157,0,-2.4565,-2.4537,-2.4532,-2.4504,-2.4498,-2.445,-2.4424,-2.4422,-2.4422,-2.4395,-2.4385,-2.4377,-2.4367,-2.432,-2.4304,-2.4312,-2.4287,-2.431,-2.4308,-2.4302,-2.419,-2.4183,-2.433,-2.433,-2.4329,-2.4329,-2.4329,-2.4329,-2.4639,-2.4657,-2.4625,-2.4631,-2.4604,-2.4602,-2.4591,-2.4574,-2.4551,-2.4546,-2.4537,-2.4506,-2.4471,-2.4452,-2.444,-2.4426,-2.4423,-2.4453,-2.4432,-2.4327,-2.4311,-2.4295,-2.4287,-2.4454,-2.4454,-2.4543,-2.4544,-2.4545]},{"header":{"parameterUnit":"m.s-1","parameterCategory":1,"la1":30.2991,"la2":30.254,"lo1":-89.0895,"lo2":-89.0444,"dy":0.0017,"dx":0.0017,"nx":28,"ny":28,"refTime":"2023-08-29T09:00:00:Z","depth":0,"parameterNumber":3,"parameterNumberName":"V-component_of_WINDS"},"data":[0,0,0,0,0,0,0,0,0,0,0,0,0,0,0,0,0,0,0,0,0,0,0,0,0,0,0,0,0,0,0,0,0,0,0,0,0,0,0,0,0,0,0,0,0,0,0,0,0,0,0,0,0,0,0,0,0,0,-0.6729,-0.6729,0,-0.6737,-0.6737,-0.6737,-0.6802,-0.6804,-0.6805,-0.6807,-0.6811,-0.681,-0.6808,0,0,0,0,0,0,0,0,0,0,0,0,0,-0.6764,-0.6763,-0.6729,-0.6729,-0.6729,-0.6737,-0.6737,-0.6737,-0.6802,-0.6804,-0.6806,-0.6808,-0.6812,-0.681,-0.6808,0,0,0,0,0,0,0,0,0,0,0,0,0,-0.6758,-0.6763,-0.6729,-0.6762,-0.6766,-0.6737,-0.6737,-0.6737,-0.6801,-0.6804,-0.6806,-0.6808,-0.6812,-0.681,-0.6808,-0.6747,0,0,-0.6802,-0.6801,0,0,0,0,0,0,0,0,-0.6759,-0.6757,-0.6757,-0.676,-0.6764,-0.6771,-0.6751,-0.6741,-0.6801,-0.6788,-0.6807,-0.681,-0.6796,-0.6795,-0.6791,-0.6747,-0.6748,-0.6802,-0.68,-0.6799,-0.6799,0,0,0,0,0,0,0,-0.6759,-0.6757,-0.6732,-0.6757,-0.6761,-0.6775,-0.6777,-0.675,-0.6778,-0.6789,-0.6794,-0.6794,-0.6798,-0.6793,-0.6792,-0.6748,-0.6802,-0.68,-0.6799,-0.6798,-0.6652,-0.665,0,0,0,0,0,0,-0.6755,-0.6757,-0.6732,-0.6732,-0.6767,-0.6773,-0.6775,-0.6766,-0.6778,-0.6783,-0.6792,-0.6797,-0.6795,-0.6794,-0.6792,-0.6721,-0.68,-0.6798,-0.6796,-0.6655,-0.6652,-0.6649,0,0,0,0,0,0,-0.6756,-0.6752,-0.6732,-0.6746,-0.6744,-0.677,-0.6759,-0.6765,-0.6761,-0.6781,-0.6786,-0.6782,-0.6797,-0.6795,-0.6758,-0.6722,-0.6797,-0.6795,-0.6658,-0.6654,-0.665,-0.6578,0,0,0,0,0,0,-0.6757,-0.6752,-0.6731,-0.6745,-0.6743,-0.6698,-0.6757,-0.6764,-0.6757,-0.6764,-0.6773,-0.6777,-0.6799,-0.6761,-0.6756,-0.6721,-0.6793,-0.6661,-0.6656,-0.6652,-0.6584,-0.6573,-0.6563,0,0,0,0,0,-0.6758,-0.671,-0.6729,-0.6726,-0.6717,-0.6696,-0.6695,-0.6723,-0.6754,-0.6732,-0.6744,-0.6776,-0.6727,-0.6756,-0.6751,-0.6715,-0.6664,-0.6658,-0.6652,-0.6589,-0.6575,-0.6563,0,0,0,0,0,0,-0.669,-0.6712,-0.6734,-0.669,-0.6691,-0.6707,-0.668,-0.6707,-0.6699,-0.6705,-0.6738,-0.674,-0.6697,-0.6702,-0.6735,-0.6656,-0.6701,-0.6693,-0.6654,-0.6641,-0.663,-0.663,-0.6791,0,0,0,0,0,-0.6669,-0.6652,-0.6672,-0.6631,-0.663,-0.6655,-0.6647,-0.6668,-0.667,-0.667,-0.668,-0.6679,-0.6664,-0.6653,-0.6639,-0.6585,-0.6587,-0.6557,-0.6546,-0.6537,-0.6531,-0.6501,-0.6488,-0.663,-0.663,-0.663,0,0,-0.6628,-0.6638,-0.6625,-0.6617,-0.6621,-0.66,-0.6655,-0.6631,-0.6616,-0.6666,-0.6632,-0.6639,-0.664,-0.6594,-0.6574,-0.6597,-0.6492,-0.653,-0.6523,-0.6521,-0.6494,-0.648,-0.6469,-0.6626,-0.6626,-0.6627,0,0,-0.6542,-0.6548,-0.6514,-0.6516,-0.652,-0.6537,-0.6528,-0.654,-0.6547,-0.6513,-0.655,-0.6531,-0.6504,-0.6503,-0.6499,-0.6409,-0.6438,-0.6404,-0.6348,-0.6319,-0.6307,-0.6298,-0.6265,-0.6253,-0.6397,-0.6397,-0.6397,0,-0.6489,-0.6462,-0.6492,-0.6467,-0.6461,-0.6506,-0.6471,-0.6471,-0.647,-0.6465,-0.649,-0.6456,-0.646,-0.6413,-0.6391,-0.6387,-0.6377,-0.6403,-0.6307,-0.6297,-0.6289,-0.6258,-0.6246,-0.6393,-0.6393,-0.6394,-0.6394,0,-0.6396,-0.6376,-0.6348,-0.6347,-0.6338,-0.6307,-0.6332,-0.632,-0.6341,-0.6353,-0.6317,-0.6323,-0.6312,-0.6302,-0.6322,-0.6257,-0.6271,-0.6301,-0.6347,-0.627,-0.6242,-0.6231,-0.6387,-0.6388,-0.6389,-0.6391,0,0,-0.6269,-0.6285,-0.6274,-0.6273,-0.628,-0.6265,-0.6235,-0.6224,-0.6212,-0.6209,-0.6184,-0.6159,-0.6186,-0.6181,-0.6201,-0.6175,-0.6103,-0.6208,-0.6209,-0.6188,-0.6031,-0.6009,-0.5995,-0.6122,-0.612,-0.6118,-0.6031,0,-0.6186,-0.6138,-0.6164,-0.6112,-0.6093,-0.6134,-0.6108,-0.6108,-0.6119,-0.6103,-0.6114,-0.6095,-0.6133,-0.613,-0.6107,-0.6117,-0.6072,-0.6124,-0.6098,-0.6097,-0.6097,-0.5981,-0.5958,-0.5876,-0.6021,-0.6019,-0.6017,0,-0.6084,-0.6077,-0.6023,-0.6033,-0.6026,-0.6002,-0.5994,-0.5978,-0.5978,-0.5988,-0.5981,-0.6007,-0.5976,-0.6021,-0.5978,-0.6013,-0.6003,-0.6006,-0.6004,-0.6003,-0.6053,-0.5977,-0.5851,-0.5838,-0.6,-0.6002,-0.6003,0,-0.5997,-0.5974,-0.5939,-0.5937,-0.5947,-0.5929,-0.5932,-0.5935,-0.5926,-0.5918,-0.5912,-0.59,-0.5893,-0.5882,-0.5902,-0.5933,-0.5857,-0.5903,-0.5863,-0.5862,-0.5846,-0.5847,-0.5716,-0.5838,-0.5839,-0.5839,-0.5839,0,-0.5902,-0.5867,-0.59,-0.5878,-0.5839,-0.5868,-0.5829,-0.5836,-0.5838,-0.5817,-0.585,-0.583,-0.5858,-0.5839,-0.5855,-0.5817,-0.5813,-0.5819,-0.5824,-0.5817,-0.5816,-0.5812,-0.5818,-0.5836,-0.5836,-0.5837,-0.5837,0,-0.5799,-0.5819,-0.5783,-0.5795,-0.5797,-0.5768,-0.5778,-0.5757,-0.577,-0.5742,-0.5737,-0.5756,-0.5736,-0.5755,-0.5735,-0.5746,-0.5695,-0.5707,-0.5695,-0.5699,-0.5657,-0.5661,-0.552,-0.5503,-0.5635,-0.5634,-0.5633,0,-0.5738,-0.5712,-0.5721,-0.571,-0.5711,-0.5693,-0.5684,-0.571,-0.57,-0.5697,-0.5676,-0.5659,-0.5647,-0.5611,-0.5622,-0.5607,-0.5619,-0.5571,-0.5617,-0.561,-0.5619,-0.562,-0.5618,-0.5562,-0.556,-0.5559,-0.5558,0,-0.5627,-0.5638,-0.5625,-0.5614,-0.5603,-0.5596,-0.5591,-0.558,-0.5607,-0.5592,-0.5572,-0.5563,-0.5542,-0.5524,-0.5512,-0.5513,-0.5539,-0.5543,-0.5533,-0.5526,-0.552,-0.5522,-0.567,-0.5546,-0.5548,-0.5548,-0.5549,-0.5549,-0.5543,-0.5522,-0.5525,-0.5508,-0.5507,-0.5502,-0.5483,-0.5492,-0.5477,-0.5463,-0.5479,-0.5454,-0.5453,-0.5439,-0.5437,-0.5417,-0.5437,-0.5422,-0.5419,-0.5415,-0.5409,-0.5522,-0.5414,-0.5415,-0.5415,-0.5415,-0.5416,0,-0.5434,-0.5438,-0.5422,-0.5415,-0.5401,-0.5427,-0.5423,-0.541,-0.5388,-0.5385,-0.5372,-0.5348,-0.533,-0.5338,-0.5322,-0.5304,-0.5316,-0.5299,-0.5301,-0.5301,-0.5392,-0.5402,-0.529,-0.529,-0.529,-0.529,-0.529,-0.529,-0.5376,-0.5341,-0.5352,-0.5316,-0.5319,-0.5297,-0.5291,-0.5286,-0.5284,-0.5256,-0.5241,-0.5247,-0.5248,-0.5232,-0.5216,-0.5219,-0.5211,-0.519,-0.5197,-0.5282,-0.5295,-0.5306,-0.5317,-0.5188,-0.5188,-0.5108,-0.5108,-0.5107]}]]